Time,TemperatureF,DewpointF,PressureIn,WindDirection,WindDirectionDegrees,WindSpeedMPH,WindSpeedGustMPH,Humidity,HourlyPrecipIn,Conditions,Clouds,dailyrainin,SolarRadiationWatts/m^2,SoftwareType,DateUTC
2013-03-04 00:21:00,27.0,20.0,-100.00,West,273,17.0,25.0,76,0.00,,,0.00,0.000000,,2013-03-04 07:21:00,
2013-03-04 00:32:00,27.0,20.0,-100.00,West,273,17.0,25.0,76,0.00,,,0.00,0.000000,,2013-03-04 07:32:00,
2013-03-04 00:42:00,27.0,20.0,-100.00,West,273,17.0,25.0,76,0.00,,,0.00,0.000000,,2013-03-04 07:42:00,
2013-03-04 00:51:00,27.0,20.0,-100.00,West,273,17.0,25.0,76,0.00,,,0.00,0.000000,,2013-03-04 07:51:00,
2013-03-04 00:52:00,26.0,19.0,-100.00,West,271,18.0,27.0,74,0.00,,,0.00,0.000000,,2013-03-04 07:52:00,
2013-03-04 01:11:00,26.0,19.0,-100.00,West,271,18.0,27.0,74,0.00,,,0.00,0.000000,,2013-03-04 08:11:00,
2013-03-04 01:22:00,26.0,19.0,-100.00,West,271,18.0,27.0,74,0.00,,,0.00,0.000000,,2013-03-04 08:22:00,
2013-03-04 01:32:00,26.0,19.0,-100.00,West,271,18.0,27.0,74,0.00,,,0.00,0.000000,,2013-03-04 08:32:00,
2013-03-04 01:42:00,26.0,19.0,-100.00,West,271,18.0,27.0,74,0.00,,,0.00,0.000000,,2013-03-04 08:42:00,
2013-03-04 02:11:00,24.0,17.0,-100.00,West,277,19.0,30.0,73,0.00,,,0.00,0.000000,,2013-03-04 09:11:00,
2013-03-04 02:21:00,24.0,17.0,-100.00,West,277,19.0,30.0,73,0.00,,,0.00,0.000000,,2013-03-04 09:21:00,
2013-03-04 02:32:00,24.0,17.0,-100.00,West,277,19.0,30.0,73,0.00,,,0.00,0.000000,,2013-03-04 09:32:00,
2013-03-04 02:42:00,24.0,17.0,-100.00,West,277,19.0,30.0,73,0.00,,,0.00,0.000000,,2013-03-04 09:42:00,
2013-03-04 02:51:00,24.0,17.0,-100.00,West,277,19.0,30.0,73,0.00,,,0.00,0.000000,,2013-03-04 09:51:00,
2013-03-04 02:52:00,23.0,17.0,-100.00,West,270,17.0,27.0,76,0.00,,,0.00,0.000000,,2013-03-04 09:52:00,
2013-03-04 03:11:00,23.0,17.0,-100.00,West,270,17.0,27.0,76,0.00,,,0.00,0.000000,,2013-03-04 10:11:00,
2013-03-04 03:22:00,23.0,17.0,-100.00,West,270,17.0,27.0,76,0.00,,,0.00,0.000000,,2013-03-04 10:22:00,
2013-03-04 03:32:00,23.0,17.0,-100.00,West,270,17.0,27.0,76,0.00,,,0.00,0.000000,,2013-03-04 10:32:00,
2013-03-04 03:42:00,23.0,17.0,-100.00,West,270,17.0,27.0,76,0.00,,,0.00,0.000000,,2013-03-04 10:42:00,
2013-03-04 03:52:00,22.0,15.0,-100.00,West,269,15.0,26.0,75,0.00,,,0.00,0.000000,,2013-03-04 10:52:00,
2013-03-04 04:22:00,22.0,15.0,-100.00,West,269,15.0,26.0,75,0.00,,,0.00,0.000000,,2013-03-04 11:22:00,
2013-03-04 04:32:00,22.0,15.0,-100.00,West,269,15.0,26.0,75,0.00,,,0.00,0.000000,,2013-03-04 11:32:00,
2013-03-04 04:42:00,22.0,15.0,-100.00,West,269,15.0,26.0,75,0.00,,,0.00,0.000000,,2013-03-04 11:42:00,
2013-03-04 04:52:00,22.0,15.0,-100.00,West,267,15.0,25.0,74,0.00,,,0.00,0.000000,,2013-03-04 11:52:00,
2013-03-04 05:22:00,22.0,15.0,-100.00,West,267,15.0,25.0,74,0.00,,,0.00,0.000000,,2013-03-04 12:22:00,
2013-03-04 05:32:00,22.0,15.0,-100.00,West,267,15.0,25.0,74,0.00,,,0.00,0.000000,,2013-03-04 12:32:00,
2013-03-04 05:42:00,22.0,15.0,-100.00,West,267,15.0,25.0,74,0.00,,,0.00,0.000000,,2013-03-04 12:42:00,
2013-03-04 06:11:00,22.0,14.0,-100.00,WSW,256,13.0,25.0,70,0.00,,,0.00,0.000000,,2013-03-04 13:11:00,
2013-03-04 06:21:00,22.0,14.0,-100.00,WSW,256,13.0,25.0,70,0.00,,,0.00,0.000000,,2013-03-04 13:21:00,
2013-03-04 06:32:00,22.0,14.0,-100.00,WSW,256,13.0,25.0,70,0.00,,,0.00,0.000000,,2013-03-04 13:32:00,
2013-03-04 06:42:00,22.0,14.0,-100.00,WSW,256,13.0,25.0,70,0.00,,,0.00,0.000000,,2013-03-04 13:42:00,
2013-03-04 06:51:00,22.0,14.0,-100.00,WSW,256,13.0,25.0,70,0.00,,,0.00,0.000000,,2013-03-04 13:51:00,
2013-03-04 06:52:00,22.0,15.0,-100.00,West,262,12.0,22.0,75,0.00,,,0.00,2.000000,,2013-03-04 13:52:00,
2013-03-04 07:11:00,22.0,15.0,-100.00,West,262,12.0,22.0,75,0.00,,,0.00,2.000000,,2013-03-04 14:11:00,
2013-03-04 07:22:00,22.0,15.0,-100.00,West,262,12.0,22.0,75,0.00,,,0.00,2.000000,,2013-03-04 14:22:00,
2013-03-04 07:32:00,22.0,15.0,-100.00,West,262,12.0,22.0,75,0.00,,,0.00,2.000000,,2013-03-04 14:32:00,
2013-03-04 07:42:00,22.0,15.0,-100.00,West,262,12.0,22.0,75,0.00,,,0.00,2.000000,,2013-03-04 14:42:00,
2013-03-04 08:11:00,20.0,15.0,-100.00,West,281,13.0,28.0,82,0.00,,,0.00,47.000000,,2013-03-04 15:11:00,
2013-03-04 08:22:00,20.0,15.0,-100.00,West,281,13.0,28.0,82,0.00,,,0.00,47.000000,,2013-03-04 15:22:00,
2013-03-04 08:32:00,20.0,15.0,-100.00,West,281,13.0,28.0,82,0.00,,,0.00,47.000000,,2013-03-04 15:32:00,
2013-03-04 08:42:00,20.0,15.0,-100.00,West,281,13.0,28.0,82,0.00,,,0.00,47.000000,,2013-03-04 15:42:00,
2013-03-04 08:51:00,20.0,15.0,-100.00,West,281,13.0,28.0,82,0.00,,,0.00,47.000000,,2013-03-04 15:51:00,
2013-03-04 08:52:00,16.0,12.0,-100.00,WNW,287,19.0,30.0,85,0.00,,,0.00,120.000000,,2013-03-04 15:52:00,
2013-03-04 09:21:00,16.0,12.0,-100.00,WNW,287,19.0,30.0,85,0.00,,,0.00,120.000000,,2013-03-04 16:21:00,
2013-03-04 09:32:00,16.0,12.0,-100.00,WNW,287,19.0,30.0,85,0.00,,,0.00,120.000000,,2013-03-04 16:32:00,
2013-03-04 09:42:00,16.0,12.0,-100.00,WNW,287,19.0,30.0,85,0.00,,,0.00,120.000000,,2013-03-04 16:42:00,
2013-03-04 09:52:00,15.0,11.0,-100.00,West,279,20.0,41.0,82,0.00,,,0.00,287.000000,,2013-03-04 16:52:00,
2013-03-04 10:22:00,15.0,11.0,-100.00,West,279,20.0,41.0,82,0.00,,,0.00,287.000000,,2013-03-04 17:22:00,
2013-03-04 10:32:00,15.0,11.0,-100.00,West,279,20.0,41.0,82,0.00,,,0.00,287.000000,,2013-03-04 17:32:00,
2013-03-04 10:42:00,15.0,11.0,-100.00,West,279,20.0,41.0,82,0.00,,,0.00,287.000000,,2013-03-04 17:42:00,
2013-03-04 10:52:00,14.0,10.0,-100.00,West,280,14.0,33.0,83,0.00,,,0.00,256.000000,,2013-03-04 17:52:00,
2013-03-04 11:22:00,14.0,10.0,-100.00,West,280,14.0,33.0,83,0.00,,,0.00,256.000000,,2013-03-04 18:22:00,
2013-03-04 11:32:00,14.0,10.0,-100.00,West,280,14.0,33.0,83,0.00,,,0.00,256.000000,,2013-03-04 18:32:00,
2013-03-04 11:42:00,14.0,10.0,-100.00,West,280,14.0,33.0,83,0.00,,,0.00,256.000000,,2013-03-04 18:42:00,
2013-03-04 12:11:00,15.0,10.0,-100.00,WNW,285,13.0,30.0,79,0.00,,,0.00,368.000000,,2013-03-04 19:11:00,
2013-03-04 12:22:00,15.0,10.0,-100.00,WNW,285,13.0,30.0,79,0.00,,,0.00,368.000000,,2013-03-04 19:22:00,
2013-03-04 12:32:00,15.0,10.0,-100.00,WNW,285,13.0,30.0,79,0.00,,,0.00,368.000000,,2013-03-04 19:32:00,
2013-03-04 12:42:00,15.0,10.0,-100.00,WNW,285,13.0,30.0,79,0.00,,,0.00,368.000000,,2013-03-04 19:42:00,
2013-03-04 12:51:00,15.0,10.0,-100.00,WNW,285,13.0,30.0,79,0.00,,,0.00,368.000000,,2013-03-04 19:51:00,
2013-03-04 12:52:00,13.0,6.0,-100.00,WNW,298,19.0,29.0,72,0.00,,,0.00,382.000000,,2013-03-04 19:52:00,
2013-03-04 13:22:00,13.0,6.0,-100.00,WNW,298,19.0,29.0,72,0.00,,,0.00,382.000000,,2013-03-04 20:22:00,
2013-03-04 13:32:00,13.0,6.0,-100.00,WNW,298,19.0,29.0,72,0.00,,,0.00,382.000000,,2013-03-04 20:32:00,
2013-03-04 13:42:00,13.0,6.0,-100.00,WNW,298,19.0,29.0,72,0.00,,,0.00,382.000000,,2013-03-04 20:42:00,
2013-03-04 13:52:00,19.0,4.0,-100.00,West,270,19.0,34.0,52,0.00,,,-99.99,964.000000,,2013-03-04 20:52:00,
2013-03-04 14:22:00,19.0,4.0,-100.00,West,270,19.0,34.0,52,0.00,,,-99.99,964.000000,,2013-03-04 21:22:00,
2013-03-04 14:32:00,19.0,4.0,-100.00,West,270,19.0,34.0,52,0.00,,,-99.99,964.000000,,2013-03-04 21:32:00,
2013-03-04 14:42:00,19.0,4.0,-100.00,West,270,19.0,34.0,52,0.00,,,-99.99,964.000000,,2013-03-04 21:42:00,
2013-03-04 14:52:00,14.0,1.0,-100.00,WNW,289,20.0,35.0,55,0.00,,,0.00,501.000000,,2013-03-04 21:52:00,
2013-03-04 15:12:00,14.0,1.0,-100.00,WNW,289,20.0,35.0,55,0.00,,,0.00,501.000000,,2013-03-04 22:12:00,
2013-03-04 15:22:00,14.0,1.0,-100.00,WNW,289,20.0,35.0,55,0.00,,,0.00,501.000000,,2013-03-04 22:22:00,
2013-03-04 15:32:00,14.0,1.0,-100.00,WNW,289,20.0,35.0,55,0.00,,,0.00,501.000000,,2013-03-04 22:32:00,
2013-03-04 15:42:00,14.0,1.0,-100.00,WNW,289,20.0,35.0,55,0.00,,,0.00,501.000000,,2013-03-04 22:42:00,
2013-03-04 15:52:00,13.0,0.0,-100.00,WNW,288,20.0,34.0,54,0.00,,,0.00,497.000000,,2013-03-04 22:52:00,
2013-03-04 16:22:00,13.0,0.0,-100.00,WNW,288,20.0,34.0,54,0.00,,,0.00,497.000000,,2013-03-04 23:22:00,
2013-03-04 16:32:00,13.0,0.0,-100.00,WNW,288,20.0,34.0,54,0.00,,,0.00,497.000000,,2013-03-04 23:32:00,
2013-03-04 16:42:00,13.0,0.0,-100.00,WNW,288,20.0,34.0,54,0.00,,,0.00,497.000000,,2013-03-04 23:42:00,
2013-03-04 17:21:00,11.0,0.0,-100.00,WNW,285,15.0,28.0,61,0.00,,,0.00,254.000000,,2013-03-05 00:21:00,
2013-03-04 17:32:00,11.0,0.0,-100.00,WNW,285,15.0,28.0,61,0.00,,,0.00,254.000000,,2013-03-05 00:32:00,
2013-03-04 17:42:00,11.0,0.0,-100.00,WNW,285,15.0,28.0,61,0.00,,,0.00,254.000000,,2013-03-05 00:42:00,
2013-03-04 17:51:00,11.0,0.0,-100.00,WNW,285,15.0,28.0,61,0.00,,,0.00,254.000000,,2013-03-05 00:51:00,
2013-03-04 18:12:00,8.0,1.0,-100.00,WNW,284,11.0,26.0,73,0.00,,,0.00,47.000000,,2013-03-05 01:12:00,
2013-03-04 18:22:00,8.0,1.0,-100.00,WNW,284,11.0,26.0,73,0.00,,,0.00,47.000000,,2013-03-05 01:22:00,
2013-03-04 18:32:00,8.0,1.0,-100.00,WNW,284,11.0,26.0,73,0.00,,,0.00,47.000000,,2013-03-05 01:32:00,
2013-03-04 18:41:00,8.0,1.0,-100.00,WNW,284,11.0,26.0,73,0.00,,,0.00,47.000000,,2013-03-05 01:41:00,
2013-03-04 18:51:00,8.0,1.0,-100.00,WNW,284,11.0,26.0,73,0.00,,,0.00,47.000000,,2013-03-05 01:51:00,
2013-03-04 18:52:00,6.0,0.0,-100.00,West,262,5.0,16.0,76,0.00,,,0.00,2.000000,,2013-03-05 01:52:00,
2013-03-04 19:22:00,6.0,0.0,-100.00,West,262,5.0,16.0,76,0.00,,,0.00,2.000000,,2013-03-05 02:22:00,
2013-03-04 19:32:00,6.0,0.0,-100.00,West,262,5.0,16.0,76,0.00,,,0.00,2.000000,,2013-03-05 02:32:00,
2013-03-04 19:42:00,6.0,0.0,-100.00,West,262,5.0,16.0,76,0.00,,,0.00,2.000000,,2013-03-05 02:42:00,
2013-03-04 19:52:00,5.0,0.0,-100.00,West,262,9.0,14.0,79,0.00,,,0.00,0.000000,,2013-03-05 02:52:00,
2013-03-04 20:12:00,5.0,0.0,-100.00,West,262,9.0,14.0,79,0.00,,,0.00,0.000000,,2013-03-05 03:12:00,
2013-03-04 20:22:00,5.0,0.0,-100.00,West,262,9.0,14.0,79,0.00,,,0.00,0.000000,,2013-03-05 03:22:00,
2013-03-04 20:32:00,5.0,0.0,-100.00,West,262,9.0,14.0,79,0.00,,,0.00,0.000000,,2013-03-05 03:32:00,
2013-03-04 20:42:00,5.0,0.0,-100.00,West,262,9.0,14.0,79,0.00,,,0.00,0.000000,,2013-03-05 03:42:00,
2013-03-04 20:52:00,3.0,-2.0,-100.00,South,188,3.0,12.0,80,0.00,,,-99.99,0.000000,,2013-03-05 03:52:00,
2013-03-04 21:12:00,3.0,-2.0,-100.00,South,188,3.0,12.0,80,0.00,,,-99.99,0.000000,,2013-03-05 04:12:00,
2013-03-04 21:22:00,3.0,-2.0,-100.00,South,188,3.0,12.0,80,0.00,,,-99.99,0.000000,,2013-03-05 04:22:00,
2013-03-04 21:32:00,3.0,-2.0,-100.00,South,188,3.0,12.0,80,0.00,,,-99.99,0.000000,,2013-03-05 04:32:00,
2013-03-04 21:42:00,3.0,-2.0,-100.00,South,188,3.0,12.0,80,0.00,,,-99.99,0.000000,,2013-03-05 04:42:00,
2013-03-04 21:52:00,1.0,-4.0,-100.00,SW,233,2.0,5.0,79,0.00,,,0.00,0.000000,,2013-03-05 04:52:00,
2013-03-04 22:12:00,1.0,-4.0,-100.00,SW,233,2.0,5.0,79,0.00,,,0.00,0.000000,,2013-03-05 05:12:00,
2013-03-04 22:22:00,1.0,-4.0,-100.00,SW,233,2.0,5.0,79,0.00,,,0.00,0.000000,,2013-03-05 05:22:00,
2013-03-04 22:32:00,1.0,-4.0,-100.00,SW,233,2.0,5.0,79,0.00,,,0.00,0.000000,,2013-03-05 05:32:00,
2013-03-04 22:42:00,1.0,-4.0,-100.00,SW,233,2.0,5.0,79,0.00,,,0.00,0.000000,,2013-03-05 05:42:00,
2013-03-04 22:52:00,4.0,-2.0,-100.00,WSW,244,8.0,13.0,77,0.00,,,0.00,0.000000,,2013-03-05 05:52:00,
2013-03-04 23:22:00,4.0,-2.0,-100.00,WSW,244,8.0,13.0,77,0.00,,,0.00,0.000000,,2013-03-05 06:22:00,
2013-03-04 23:32:00,4.0,-2.0,-100.00,WSW,244,8.0,13.0,77,0.00,,,0.00,0.000000,,2013-03-05 06:32:00,
2013-03-04 23:42:00,4.0,-2.0,-100.00,WSW,244,8.0,13.0,77,0.00,,,0.00,0.000000,,2013-03-05 06:42:00,